• Join FlightAware (Why Join?)
  • Login
  • US Flag 
04:43AM EDT


 

Airport Tracker/Info


-or-


 

Live Flight TrackerFlight Track Log ✈ SWA407 ✈ 11-Apr-2013 ✈ KBUF - KBWI

Flight Track Log - Related Links

Times and Time Zones

All times are in EDT time to prevent confusion due to time zone crossing. See the SWA407 flight status page for this flight to view local times or setup timezone preferences in your user account.

Time Position Orientation Groundspeed Altitude Reporting Facility
EDT Latitude Longitude Course Direction KTS MPH feet Rate Location/Type
07:12PM 42.9500 -78.7167 36° Northeast 136 157 1,900  Level Buffalo TRACON
07:12PM 42.9667 -78.7000 36° Northeast 132 152 2,700 2,400 Climbing Buffalo TRACON
07:14PM 42.8444 -78.6689 169° South 211 243 8,300 2,400 Climbing Cleveland Center
07:15PM 42.7778 -78.6625 176° South 256 295 10,700 2,880 Climbing Cleveland Center
07:16PM 42.6881 -78.6567 177° South 293 337 14,100 3,000 Climbing Cleveland Center
07:17PM 42.5900 -78.6542 179° South 328 377 16,700 2,820 Climbing Cleveland Center
07:18PM 42.4836 -78.6489 178° South 362 417 19,800 3,120 Climbing Cleveland Center
07:19PM 42.3708 -78.6411 177° South 375 432 23,000 1,560 Climbing Cleveland Center
07:20PM 42.2686 -78.6331 177° South 375 432 23,000  Level Cleveland Center
07:21PM 42.1728 -78.6303 179° South 380 437 23,000  Level Cleveland Center
07:22PM 42.0778 -78.5606 151° Southeast 380 437 23,000  Level Cleveland Center
07:23PM 41.9883 -78.4656 142° Southeast 387 445 23,000  Level Cleveland Center
07:24PM 41.8992 -78.3736 142° Southeast 397 457 23,000 840 Level Cleveland Center
07:25PM 41.8097 -78.2792 142° Southeast 408 470 24,700 960 Climbing Cleveland Center
07:26PM 41.7161 -78.1825 142° Southeast 421 484 25,000 120 Climbing Cleveland Center
07:28PM 41.5792 -78.0231 139° Southeast 451 519 25,000  Level New York Center
07:29PM 41.4992 -77.8981 130° Southeast 473 544 25,000  Level New York Center
07:30PM 41.3994 -77.7547 133° Southeast 478 550 25,000 -60 Level New York Center
07:31PM 41.3069 -77.6236 133° Southeast 488 562 24,900 -660 Descending New York Center
07:32PM 41.1944 -77.5514 154° Southeast 475 547 23,700 -1,440 Descending New York Center
07:33PM 41.0864 -77.5078 163° South 436 502 22,000 -1,320 Descending New York Center
07:34PM 40.9786 -77.4611 162° South 423 487 21,100 -960 Descending New York Center
07:35PM 40.8708 -77.4122 161° South 412 474 20,100 -1,020 Descending New York Center
07:36PM 40.7653 -77.3636 161° South 412 474 19,100 -600 Descending New York Center
07:37PM 40.6697 -77.3217 162° South 412 474 19,000 -60 Descending New York Center
07:38PM 40.5719 -77.2767 161° South 391 450 19,000  Level New York Center
07:39PM 40.4742 -77.2347 162° South 346 398 19,000 -60 Level New York Center
07:40PM 40.3989 -77.2031 162° South 327 376 18,900 -660 Descending New York Center
07:41PM 40.3053 -77.1592 160° South 327 376 17,700 -1,140 Descending New York Center
07:42PM 40.1500 -77.0833 160° South 322 371 15,700 -1,080 Descending Potomac TRACON
07:43PM 40.0667 -77.0500 163° South 319 367 14,700 -1,020 Descending Potomac TRACON
07:44PM 39.9833 -77.0167 163° South 309 356 13,700 -1,020 Descending Potomac TRACON
07:45PM 39.9000 -76.9833 163° South 306 352 12,700 -900 Descending Potomac TRACON
07:46PM 39.8167 -76.9500 163° South 295 339 12,000 -1,020 Descending Potomac TRACON
07:47PM 39.7500 -76.9167 159° South 286 329 10,700 -1,320 Descending Potomac TRACON
07:48PM 39.6667 -76.8833 163° South 284 327 9,400 -1,380 Descending Potomac TRACON
07:49PM 39.6000 -76.8500 159° South 283 326 8,100 -1,440 Descending Potomac TRACON
07:50PM 39.5333 -76.8667 191° South 261 300 6,700 -1,500 Descending Potomac TRACON
07:51PM 39.4667 -76.8833 191° South 252 290 5,100 -1,380 Descending Potomac TRACON
07:52PM 39.4000 -76.9000 191° South 247 284 4,000 -600 Descending Potomac TRACON
07:53PM 39.3333 -76.9167 191° South 245 282 4,000  Level Potomac TRACON
07:54PM 39.2667 -76.9333 191° South 243 280 4,000 -60 Level Potomac TRACON
07:55PM 39.2000 -76.9333 180° South 181 208 3,900 -480 Descending Potomac TRACON
07:56PM 39.1833 -76.8833 113° Southeast 158 182 3,100 -840 Descending Potomac TRACON
07:57PM 39.1833 -76.8333 90° East 143 165 2,300 -720 Descending Potomac TRACON
07:58PM 39.1833 -76.7833 90° East 126 145 1,700 -660 Descending Potomac TRACON
07:59PM 39.1833 -76.7500 90° East 130 150 1,000 -720 Descending Potomac TRACON